Location: Edisto_Beach
(32.4790°N, 80.3350°W)
Time: 18:09:15
(UTC-04:00)

Amateur Radio Satellites - All Passes

Search period start: 04 May 2015 17:39
Search period end: 05 May 2015 17:39
Location: Edisto_Beach, 32.4790°N, 80.3350°W

Satellite Date Start Highest point End Downlink Frequencies (MHz)
Time Altitude Azimuth
CUTE-I 04 May 17:48:17 17:51:29 17° 68° (ENE) 17:54:56 437.470
Cubesat XI-IV 04 May 18:00:08 18:04:08 23° 69° (ENE) 18:08:16 437.490
VERMONT LUNAR 04 May 18:06:51 18:10:13 71° 25° (NNE) 18:13:35 437.305
SO-50 04 May 18:20:28 18:24:28 25° 52° (NE) 18:28:31 436.795
Cosmos 2499 04 May 18:36:44 18:45:37 76° 278° (W) 18:54:07 435.465 / 435.565
PHONESAT 2.4 04 May 18:40:27 18:43:55 45° 20° (NNE) 18:47:22 2401.200-2431.200
PRISM 04 May 19:07:14 19:09:13 14° 93° (E) 19:11:25 437.425
M-CUBED/EXP-1 PRIME 04 May 19:08:56 19:10:44 14° 96° (E) 19:12:38 437.505
MOZHAYETS 4 04 May 19:13:11 19:15:48 15° 291° (WNW) 19:18:12
CUTE-I 04 May 19:26:05 19:31:13 49° 260° (W) 19:36:21 437.470
CUBESAT XI-V 04 May 19:39:00 19:43:38 74° 101° (E) 19:48:17 437.345
Cubesat XI-IV 04 May 19:39:09 19:44:03 36° 262° (W) 19:48:54 437.490
AUBIESAT-1 04 May 19:40:26 19:43:43 31° 101° (E) 19:46:50 437.475
VERMONT LUNAR 04 May 19:45:09 19:47:23 16° 218° (SW) 19:49:33 437.305
SO-50 04 May 20:00:38 20:05:06 34° 247° (WSW) 20:09:25 436.795
HO-68 04 May 20:01:09 20:06:12 22° 64° (ENE) 20:11:31 435.675
PHONESAT 2.4 04 May 20:18:50 20:22:04 31° 214° (SW) 20:25:16 2401.200-2431.200
RS-15 04 May 20:24:10 20:30:56 17° 31° (NNE) 20:38:26 29.354- 29.394
STRAND 1 04 May 20:33:32 20:38:37 73° 285° (WNW) 20:43:43 437.568
Cosmos 2499 04 May 20:37:05 20:40:16 12° 296° (WNW) 20:42:37 435.465 / 435.565
PRISM 04 May 20:41:06 20:44:51 34° 287° (WNW) 20:48:33 437.425
CINEMA 3 04 May 20:41:34 20:42:24 11° 66° (ENE) 20:43:33 145.822/145.860
CANX-2 04 May 20:41:35 20:45:10 26° 73° (ENE) 20:48:48 2200.000
M-CUBED/EXP-1 PRIME 04 May 20:42:34 20:45:46 26° 293° (WNW) 20:48:43 437.505
BRITE-PL 04 May 20:47:31 20:51:41 70° 77° (ENE) 20:56:09 437.365/2234.400
CUTE 1.7 + AOD 2 04 May 20:49:00 20:52:42 29° 73° (ENE) 20:56:27 437.475
Cosmos 2491 04 May 20:52:09 20:56:00 14° 82° (E) 21:00:35 435.465 / 435.565
O/OREOS (USA 219) 04 May 20:54:26 20:59:01 85° 109° (ESE) 21:03:35 437.305
YUBILEINY 04 May 21:00:20 21:07:53 33° 74° (ENE) 21:15:36 435.215
DOVE 4 04 May 21:08:25 21:12:36 46° 75° (ENE) 21:17:05 437.250
CUBEBUG 2 04 May 21:09:08 21:10:10 11° 67° (ENE) 21:11:31 437.445
COMPASS 1 04 May 21:09:32 21:13:19 33° 74° (ENE) 21:17:09 437.405
JUGNU 04 May 21:10:08 21:13:57 18° 168° (SSE) 21:17:51 437.505
AUBIESAT-1 04 May 21:16:41 21:18:14 12° 297° (WNW) 21:19:34 437.475
GOMX 1 04 May 21:20:57 21:25:13 76° 259° (W) 21:29:48 467.674
ZACube-1 04 May 21:26:04 21:26:37 10° 67° (ENE) 21:27:27 437.345
SRMSAT 04 May 21:41:07 21:42:53 11° 163° (SSE) 21:44:47 437.500
AAUSAT CUBESAT 2 04 May 21:42:59 21:47:11 76° 78° (ENE) 21:51:25 437.432
HO-68 04 May 21:46:20 21:53:26 62° 258° (WSW) 22:00:34 435.675
DELFI C3 04 May 21:48:07 21:51:25 25° 73° (ENE) 21:54:48 145.870
SEEDS 04 May 21:50:47 21:54:59 57° 260° (W) 21:59:12 437.485
DX 1 04 May 21:51:46 21:53:07 12° 68° (ENE) 21:54:44 434.975-435.025
CINEMA 3 04 May 22:14:39 22:19:04 61° 261° (W) 22:23:42 145.822/145.860
CANX-2 04 May 22:17:51 22:21:05 20° 266° (W) 22:24:13 2200.000
UKube-1 04 May 22:18:04 22:21:23 23° 71° (ENE) 22:24:48 .
AISAT 04 May 22:24:35 22:26:31 13° 68° (ENE) 22:28:40 437.250
CUTE 1.7 + AOD 2 04 May 22:25:36 22:28:39 18° 267° (W) 22:31:34 437.475
FUNcube-1 04 May 22:28:26 22:32:46 58° 75° (ENE) 22:37:12 145.935
Oscar 11 04 May 22:33:33 22:37:51 60° 260° (W) 22:42:10 145.826/435.025
RS-15 04 May 22:34:57 22:46:28 63° 57° (ENE) 22:58:30 29.354- 29.394
CUBEBUG 2 04 May 22:41:58 22:46:22 58° 260° (W) 22:50:56 437.445
Cosmos 2491 04 May 22:43:11 22:51:55 87° 277° (W) 23:00:46 435.465 / 435.565
UWE-3 04 May 22:46:22 22:50:46 65° 260° (W) 22:55:21 435.000/436.395/437.385
COMPASS 1 04 May 22:46:29 22:49:07 15° 267° (W) 22:51:35 437.405
DOVE 4 04 May 22:49:01 22:50:49 12° 271° (W) 22:52:21 437.250
Cosmos 2504 04 May 22:56:19 22:59:05 13° 64° (ENE) 23:02:23 435.465 / 435.565
YUBILEINY 04 May 22:56:45 23:04:53 44° 270° (W) 23:12:50 435.215
JUGNU 04 May 22:57:44 23:02:24 24° 178° (S) 23:07:06 437.505
ZACube-1 04 May 22:58:07 23:02:29 60° 261° (W) 23:06:57 437.345
ANTELSAT 04 May 23:02:28 23:05:41 19° 93° (E) 23:08:59 437.575/2403.000
HUMSAT D 04 May 23:06:01 23:10:16 75° 77° (ENE) 23:14:35 437.325/437.525
CUBEBUG 1 04 May 23:12:52 23:16:01 21° 71° (ENE) 23:19:19 437.445
NANOSAT C BR1 04 May 23:22:09 23:23:59 13° 92° (E) 23:26:06 145.865
50 SAT 04 May 23:22:52 23:26:51 70° 77° (ENE) 23:30:54 437.505
DELFI C3 04 May 23:23:34 23:26:33 19° 266° (W) 23:29:24 145.870
DX 1 04 May 23:24:48 23:29:00 49° 260° (W) 23:33:12 434.975-435.025
SRMSAT 04 May 23:27:08 23:31:28 21° 172° (S) 23:35:48 437.500
POPSAT HIP 1 04 May 23:29:30 23:32:08 16° 93° (E) 23:34:57 437.405
VELOX 1 04 May 23:36:17 23:40:41 88° 257° (WSW) 23:45:06 145.980
ESTCUBE 1 04 May 23:36:55 23:41:14 48° 74° (ENE) 23:45:34 437.505/2401.250
TIGRISAT 04 May 23:46:30 23:51:06 62° 100° (E) 23:55:34 435.000
BEESAT 3 04 May 23:48:43 23:51:54 23° 112° (ESE) 23:55:12 437.485
DUCHIFAT 1 04 May 23:51:11 23:54:56 29° 97° (E) 23:58:43 145.980
UKube-1 04 May 23:53:55 23:57:26 24° 264° (W) 00:00:54 .
SPROUT 04 May 23:54:07 23:56:31 15° 70° (ENE) 23:59:06 437.525
UNISAT 6 04 May 23:55:31 00:00:10 83° 102° (ESE) 00:04:40 437.425
AISAT 04 May 23:58:34 00:02:46 44° 261° (W) 00:06:59 437.250
POLYITAN 1 05 May 00:02:53 00:07:00 43° 99° (E) 00:11:07 437.675
BEESAT 2 05 May 00:03:18 00:06:46 28° 112° (ESE) 00:10:21 435.950
QB50P1 05 May 00:15:13 00:19:29 62° 101° (E) 00:23:44 145.935-145.965
AIST 1 05 May 00:17:42 00:21:58 77° 276° (W) 00:26:15
TISAT 1 05 May 00:18:45 00:21:58 22° 72° (ENE) 00:25:18 437.305
AIST 2 05 May 00:30:55 00:33:29 16° 110° (ESE) 00:36:13 435.215
BUGSAT 1 05 May 00:32:57 00:37:09 68° 100° (E) 00:41:23 437.445
ANTELSAT 05 May 00:38:27 00:42:33 31° 288° (WNW) 00:46:30 437.575/2403.000
QB50P2 05 May 00:45:12 00:49:25 53° 285° (WNW) 00:53:36 145.880/145.840
Cosmos 2491 05 May 00:45:53 00:50:18 14° 296° (WNW) 00:54:01 435.465 / 435.565
Cosmos 2504 05 May 00:46:10 00:53:49 86° 265° (W) 01:01:02 435.465 / 435.565
JUGNU 05 May 00:46:29 00:50:53 21° 188° (S) 00:55:15 437.505
RS-15 05 May 00:48:21 00:58:28 33° 253° (WSW) 01:08:26 29.354- 29.394
CUBEBUG 1 05 May 00:48:38 00:52:16 26° 264° (W) 00:55:51 437.445
NANOSAT C BR1 05 May 00:56:01 01:00:04 40° 286° (WNW) 01:04:04 145.865
SWISSCUBE 05 May 00:59:18 01:00:35 11° 67° (ENE) 01:02:12 437.505
POPSAT HIP 1 05 May 01:04:15 01:08:07 32° 287° (WNW) 01:11:56 437.405
SRMSAT 05 May 01:15:23 01:20:05 24° 181° (S) 01:24:46 437.500
ESTCUBE 1 05 May 01:16:38 01:18:25 12° 269° (W) 01:19:54 437.505/2401.250
TIGRISAT 05 May 01:26:22 01:27:20 10° 293° (WNW) 01:28:00 435.000
BEESAT 3 05 May 01:26:29 01:29:50 24° 306° (NW) 01:33:09 437.485
DUCHIFAT 1 05 May 01:27:33 01:30:34 18° 289° (WNW) 01:33:26 145.980
SPROUT 05 May 01:28:24 01:32:20 35° 262° (W) 01:36:16 437.525
POLYITAN 1 05 May 01:40:30 01:42:34 13° 291° (WNW) 01:44:25 437.675
BEESAT 2 05 May 01:41:45 01:44:54 20° 307° (NW) 01:47:59 435.950
CUSAT 1 05 May 01:54:19 01:56:02 11° 60° (ENE) 01:58:30 437.405
TISAT 1 05 May 01:54:21 01:57:42 22° 265° (W) 02:00:57 437.305
ITUPSAT 1 05 May 02:04:58 02:09:38 56° 74° (ENE) 02:14:19 437.325
AIST 2 05 May 02:07:53 02:11:48 35° 303° (WNW) 02:15:45 435.215
BEESAT 05 May 02:28:53 02:33:39 77° 257° (WSW) 02:38:27 436.000
SWISSCUBE 05 May 02:33:16 02:38:00 62° 259° (W) 02:42:44 437.505
JUGNU 05 May 02:37:01 02:39:18 12° 196° (SSW) 02:41:28 437.505
Oscar 19 05 May 02:41:53 02:47:05 68° 101° (ESE) 02:52:14 437.125/150
KKS-1 05 May 02:49:57 02:53:40 28° 72° (ENE) 02:57:30 437.445
SRMSAT 05 May 03:04:41 03:08:41 18° 191° (S) 03:12:37 437.500
STARS 05 May 03:18:48 03:22:48 36° 73° (ENE) 03:26:52 437.465
GONETS M04 05 May 03:20:29 03:29:11 61° 80° (E) 03:37:51
Gurwin Techsat 1B 05 May 03:31:12 03:36:22 52° 99° (E) 03:41:32 435.225
CUSAT 1 05 May 03:32:13 03:40:30 66° 79° (E) 03:48:18 437.405
DANDE 05 May 03:37:50 03:46:09 59° 78° (ENE) 03:54:21 436.750
ITAMSAT 1 05 May 03:39:42 03:44:53 72° 101° (E) 03:50:05 435.822/435.867
AO-7 05 May 03:44:38 03:47:06 12° 89° (E) 03:50:25 29.400- 29.500
ITUPSAT 1 05 May 03:46:13 03:47:56 11° 269° (W) 03:49:17 437.325
Oscar 19 05 May 04:23:52 04:25:55 12° 294° (WNW) 04:27:38 437.125/150
JAS-2 05 May 04:26:53 04:31:09 23° 93° (E) 04:35:20 435.910
KKS-1 05 May 04:26:57 04:30:19 21° 266° (W) 04:33:36 437.445
MOZHAYETS 4 05 May 04:32:29 04:36:07 24° 72° (ENE) 04:39:53
Cosmos 2499 05 May 04:35:30 04:41:25 27° 72° (ENE) 04:47:20 435.465 / 435.565
STARS 05 May 04:56:43 04:59:25 15° 267° (W) 05:01:56 437.465
HORYU 2 05 May 05:08:44 05:13:13 78° 284° (WNW) 05:17:39 437.375
Gurwin Techsat 1B 05 May 05:12:41 05:15:58 16° 293° (WNW) 05:19:02 435.225
CUSAT 1 05 May 05:16:17 05:22:38 24° 274° (W) 05:28:23 437.405
GONETS M04 05 May 05:18:47 05:25:28 23° 275° (W) 05:31:42
DANDE 05 May 05:22:01 05:29:01 28° 272° (W) 05:35:36 436.750
ITAMSAT 1 05 May 05:22:10 05:23:53 11° 294° (WNW) 05:25:15 435.822/435.867
AO-7 05 May 05:32:48 05:41:11 83° 106° (ESE) 05:49:33 29.400- 29.500
M-CUBED/EXP-1 PRIME 05 May 05:52:27 05:54:59 15° 64° (ENE) 05:57:42 437.505
MOZHAYETS 4 05 May 06:09:22 06:13:16 26° 265° (W) 06:17:05
JAS-2 05 May 06:11:23 06:16:27 33° 290° (WNW) 06:21:05 435.910
PCSat 05 May 06:18:56 06:24:15 63° 113° (ESE) 06:29:38 145.827
AUBIESAT-1 05 May 06:23:07 06:27:05 27° 68° (ENE) 06:31:04 437.475
Cubesat XI-IV 05 May 06:23:18 06:25:18 12° 90° (E) 06:27:41 437.490
Cosmos 2499 05 May 06:27:58 06:34:48 42° 270° (W) 06:41:16 435.465 / 435.565
CUBESAT XI-V 05 May 06:37:58 06:42:15 41° 74° (ENE) 06:46:36 437.345
O/OREOS (USA 219) 05 May 07:09:06 07:13:35 74° 70° (ENE) 07:18:01 437.305
M-CUBED/EXP-1 PRIME 05 May 07:24:44 07:29:28 53° 256° (WSW) 07:34:06 437.505
PRISM 05 May 07:26:09 07:30:18 87° 77° (ENE) 07:34:26 437.425
AO-7 05 May 07:27:38 07:33:10 19° 301° (WNW) 07:38:18 29.400- 29.500
ISS 05 May 07:33:48 07:36:31 26° 130° (SE) 07:39:17 145.825
STRAND 1 05 May 07:44:43 07:49:49 81° 259° (W) 07:54:56 437.568
CUTE-I 05 May 07:47:38 07:52:58 84° 284° (WNW) 07:58:19 437.470
AUBIESAT-1 05 May 07:57:43 08:01:46 26° 260° (W) 08:05:41 437.475
Cubesat XI-IV 05 May 08:00:37 08:05:53 62° 286° (WNW) 08:11:09 437.490
PCSat 05 May 08:04:50 08:08:12 16° 310° (NW) 08:11:20 145.827
CUBESAT XI-V 05 May 08:17:17 08:19:56 15° 268° (W) 08:22:21 437.345
SO-50 05 May 08:31:10 08:34:25 20° 110° (ESE) 08:37:55 436.795
BRITE-PL 05 May 08:55:58 09:01:04 38° 97° (E) 09:06:22 437.365/2234.400
Cosmos 2491 05 May 08:59:47 09:07:46 38° 75° (ENE) 09:15:53 435.465 / 435.565
ISS 05 May 09:10:15 09:12:51 22° 324° (NW) 09:15:27 145.825
DOVE 4 05 May 09:12:21 09:16:23 23° 93° (E) 09:20:34 437.250
HO-68 05 May 09:19:32 09:25:50 34° 97° (E) 09:32:14 435.675
GOMX 1 05 May 09:26:39 09:31:56 49° 98° (E) 09:37:15 467.674
AAUSAT CUBESAT 2 05 May 09:31:55 09:34:30 16° 93° (E) 09:37:13 437.432
SEEDS 05 May 09:40:05 09:43:50 32° 97° (E) 09:47:36 437.485
BEESAT 3 05 May 09:48:41 09:52:38 48° 59° (ENE) 09:56:31 437.485
YUBILEINY 05 May 09:54:57 10:03:05 45° 90° (E) 10:11:21 435.215
ANTELSAT 05 May 09:59:14 10:00:12 11° 67° (ENE) 10:01:29 437.575/2403.000
BEESAT 2 05 May 10:04:07 10:08:11 59° 60° (ENE) 10:12:09 435.950
CANX-2 05 May 10:06:32 10:10:47 81° 284° (WNW) 10:15:00 2200.000
SO-50 05 May 10:10:28 10:14:44 35° 305° (NW) 10:19:06 436.795
CUTE 1.7 + AOD 2 05 May 10:13:59 10:18:14 74° 283° (WNW) 10:22:26 437.475
CINEMA 3 05 May 10:14:06 10:18:57 48° 98° (E) 10:23:44 145.822/145.860
FUNcube-1 05 May 10:22:53 10:25:40 16° 92° (E) 10:28:36 145.935
Oscar 11 05 May 10:25:46 10:29:40 33° 97° (E) 10:33:35 145.826/435.025
AIST 1 05 May 10:30:47 10:33:24 16° 74° (ENE) 10:36:13
COMPASS 1 05 May 10:32:43 10:36:52 66° 284° (WNW) 10:40:58 437.405
AIST 2 05 May 10:33:47 10:37:40 35° 57° (ENE) 10:41:30 435.215
BRITE-PL 05 May 10:34:56 10:39:23 25° 289° (WNW) 10:43:47 437.365/2234.400
CUBEBUG 2 05 May 10:37:52 10:42:22 43° 98° (E) 10:46:47 437.445
TIGRISAT 05 May 10:40:45 10:44:47 32° 72° (ENE) 10:48:56 435.000
DUCHIFAT 1 05 May 10:41:01 10:42:47 13° 69° (ENE) 10:44:46 145.980
UWE-3 05 May 10:41:15 10:45:32 37° 97° (E) 10:49:45 435.000/436.395/437.385
VERMONT LUNAR 05 May 10:45:31 10:46:47 12° 141° (SE) 10:48:11 437.305
DOVE 4 05 May 10:49:20 10:54:12 37° 287° (WNW) 10:59:00 437.250
UNISAT 6 05 May 10:49:43 10:54:01 41° 74° (ENE) 10:58:28 437.425
ZACube-1 05 May 10:51:41 10:55:54 37° 97° (E) 11:00:04 437.345
POLYITAN 1 05 May 10:52:25 10:55:20 19° 71° (ENE) 10:58:23 437.675
HUMSAT D 05 May 10:56:01 10:58:48 17° 93° (E) 11:01:44 437.325/437.525
Cosmos 2491 05 May 10:56:35 11:04:38 39° 271° (W) 11:12:28 435.465 / 435.565
QB50P1 05 May 11:04:00 11:07:26 25° 72° (ENE) 11:10:58 145.935-145.965
GOMX 1 05 May 11:05:56 11:09:42 19° 291° (WNW) 11:13:16 467.674
DELFI C3 05 May 11:06:14 11:10:16 82° 101° (ESE) 11:14:16 145.870
AAUSAT CUBESAT 2 05 May 11:06:33 11:10:12 29° 287° (WNW) 11:13:45 437.432
50 SAT 05 May 11:06:37 11:08:01 12° 91° (E) 11:09:37 437.505
HO-68 05 May 11:07:02 11:13:35 38° 292° (WNW) 11:19:59 435.675
SEEDS 05 May 11:16:45 11:19:25 16° 289° (WNW) 11:21:54 437.485
DX 1 05 May 11:17:42 11:21:47 38° 99° (E) 11:25:54 434.975-435.025
BUGSAT 1 05 May 11:19:16 11:22:30 24° 72° (ENE) 11:25:49 437.445
Cosmos 2504 05 May 11:29:01 11:32:57 15° 83° (E) 11:37:33 435.465 / 435.565
BEESAT 3 05 May 11:29:25 11:30:15 10° 251° (WSW) 11:30:48 437.485
ANTELSAT 05 May 11:31:55 11:36:29 62° 260° (W) 11:41:09 437.575/2403.000
VELOX 1 05 May 11:31:58 11:35:36 25° 96° (E) 11:39:21 145.980
QB50P2 05 May 11:33:19 11:37:29 61° 75° (ENE) 11:41:41 145.880/145.840
ESTCUBE 1 05 May 11:35:40 11:38:04 15° 92° (E) 11:40:41 437.505/2401.250
NANOSAT C BR1 05 May 11:43:34 11:47:46 80° 77° (ENE) 11:52:01 145.865
UKube-1 05 May 11:44:59 11:49:20 80° 102° (ESE) 11:53:40 .
POPSAT HIP 1 05 May 11:51:52 11:56:05 80° 260° (W) 12:00:21 437.405
YUBILEINY 05 May 11:52:18 12:00:07 33° 286° (WNW) 12:07:43 435.215
CINEMA 3 05 May 11:52:39 11:55:46 16° 291° (WNW) 11:58:37 145.822/145.860
AISAT 05 May 11:53:41 11:58:01 48° 100° (E) 12:02:21 437.250
FUNcube-1 05 May 11:57:59 12:02:09 35° 287° (WNW) 12:06:11 145.935
Oscar 11 05 May 12:02:51 12:05:37 16° 290° (WNW) 12:08:12 145.826/435.025
AIST 1 05 May 12:07:22 12:11:10 30° 268° (W) 12:14:54
AIST 2 05 May 12:13:25 12:15:58 15° 250° (WSW) 12:18:20 435.215
DUCHIFAT 1 05 May 12:14:17 12:18:16 41° 261° (W) 12:22:17 145.980
CUBEBUG 2 05 May 12:15:48 12:18:43 16° 291° (WNW) 12:21:23 437.445
TIGRISAT 05 May 12:18:11 12:21:35 20° 267° (W) 12:24:54 435.000
UWE-3 05 May 12:18:40 12:21:47 17° 290° (WNW) 12:24:41 435.000/436.395/437.385
VERMONT LUNAR 05 May 12:20:34 12:23:51 89° 198° (SSW) 12:27:11 437.305
POLYITAN 1 05 May 12:27:24 12:31:05 28° 264° (W) 12:34:43 437.675
UNISAT 6 05 May 12:28:19 12:31:03 15° 269° (W) 12:33:35 437.425
ZACube-1 05 May 12:29:03 12:31:58 16° 290° (WNW) 12:34:40 437.345
HUMSAT D 05 May 12:30:51 12:34:38 30° 287° (WNW) 12:38:18 437.325/437.525
50 SAT 05 May 12:39:18 12:43:00 36° 286° (WNW) 12:46:38 437.505
QB50P1 05 May 12:40:06 12:43:17 20° 266° (W) 12:46:24 145.935-145.965
CUBEBUG 1 05 May 12:41:05 12:45:31 81° 102° (ESE) 12:49:56 437.445
RS-15 05 May 12:52:34 13:03:10 63° 113° (ESE) 13:13:59 29.354- 29.394
BUGSAT 1 05 May 12:55:02 12:57:58 19° 266° (W) 13:00:47 437.445
DX 1 05 May 12:55:10 12:57:45 15° 291° (WNW) 13:00:08 434.975-435.025
PHONESAT 2.4 05 May 13:03:17 13:06:44 58° 149° (SSE) 13:10:13 2401.200-2431.200
VELOX 1 05 May 13:08:31 13:12:05 23° 289° (WNW) 13:15:32 145.980
ESTCUBE 1 05 May 13:10:57 13:15:08 39° 286° (WNW) 13:19:18 437.505/2401.250
Cosmos 2504 05 May 13:16:39 13:25:34 90° 309° (NW) 13:34:14 435.465 / 435.565
SPROUT 05 May 13:19:16 13:23:31 54° 100° (E) 13:27:46 437.525
AISAT 05 May 13:32:08 13:34:14 13° 292° (WNW) 13:36:06 437.250
TISAT 1 05 May 13:42:20 13:46:38 79° 101° (E) 13:50:54 437.305
Oscar 19 05 May 13:54:03 13:59:07 61° 75° (ENE) 14:04:15 437.125/150
VERMONT LUNAR 05 May 13:58:43 14:01:32 25° 348° (NNW) 14:04:21 437.305
ITUPSAT 1 05 May 14:11:02 14:14:33 21° 94° (E) 14:18:12 437.325
GONETS M04 05 May 14:26:08 14:28:05 11° 81° (E) 14:30:54
BEESAT 05 May 14:33:59 14:38:25 39° 98° (E) 14:42:53 436.000
SWISSCUBE 05 May 14:38:16 14:42:52 48° 100° (E) 14:47:28 437.505
AO-7 05 May 14:39:49 14:42:56 13° 56° (NE) 14:46:39 29.400- 29.500
PHONESAT 2.4 05 May 14:41:52 14:45:05 32° 345° (NNW) 14:48:18 2401.200-2431.200
Gurwin Techsat 1B 05 May 14:47:41 14:52:48 52° 74° (ENE) 14:57:58 435.225
ITAMSAT 1 05 May 14:53:05 14:58:12 69° 75° (ENE) 15:03:21 435.822/435.867
SPROUT 05 May 14:58:08 14:59:11 11° 292° (WNW) 14:59:57 437.525
RS-15 05 May 15:06:36 15:16:16 34° 314° (NW) 15:25:55 29.354- 29.394
PCSat 05 May 15:12:23 15:16:15 20° 53° (NE) 15:20:16 145.827
Cosmos 2504 05 May 15:15:07 15:20:13 15° 294° (WNW) 15:24:35 435.465 / 435.565
Oscar 19 05 May 15:36:52 15:38:58 12° 270° (W) 15:40:43 437.125/150
VERMONT LUNAR 05 May 15:36:58 15:39:34 21° 5° (N) 15:42:12 437.305
ISS 05 May 15:40:19 15:43:26 42° 41° (NE) 15:46:32 145.825
ITUPSAT 1 05 May 15:48:17 15:52:30 31° 288° (WNW) 15:56:37 437.325
HORYU 2 05 May 16:02:16 16:06:38 53° 75° (ENE) 16:11:03 437.375
BEESAT 05 May 16:12:50 16:16:00 17° 291° (WNW) 16:18:59 436.000
JAS-2 05 May 16:15:03 16:22:42 61° 74° (ENE) 16:29:55 435.910
GONETS M04 05 May 16:15:03 16:23:49 81° 95° (E) 16:32:41
SWISSCUBE 05 May 16:17:47 16:20:22 14° 292° (WNW) 16:22:43 437.505
PHONESAT 2.4 05 May 16:21:05 16:23:54 22° 2° (N) 16:26:45 2401.200-2431.200
KKS-1 05 May 16:21:18 16:25:48 75° 284° (WNW) 16:30:16 437.445
AO-7 05 May 16:26:22 16:34:36 75° 71° (ENE) 16:42:53 29.400- 29.500
Gurwin Techsat 1B 05 May 16:30:02 16:33:09 15° 269° (W) 16:35:59 435.225
CUSAT 1 05 May 16:35:02 16:39:17 81° 98° (E) 16:45:05 437.405
ITAMSAT 1 05 May 16:37:09 16:38:16 10° 270° (W) 16:38:58 435.822/435.867
DANDE 05 May 16:45:35 16:49:30 73° 95° (E) 16:54:52 436.750
STARS 05 May 16:49:02 16:53:25 57° 285° (WNW) 16:57:45 437.465
PCSat 05 May 16:54:46 16:59:57 47° 249° (WSW) 17:05:06 145.827
Cosmos 2499 05 May 17:05:17 17:12:21 29° 87° (E) 17:19:26 435.465 / 435.565
VERMONT LUNAR 05 May 17:14:12 17:17:27 47° 21° (NNE) 17:20:43 437.305
ISS 05 May 17:18:05 17:19:31 12° 233° (SW) 17:20:49 145.825
CUTE-I 05 May 17:30:16 17:30:42 10° 65° (ENE) 17:31:31 437.470
RS-15 05 May 17:32:49 17:33:52 10° 347° (NNW) 17:34:33 29.354- 29.394
